FW0959 Weather Reports


Display with metric or nautical units.
time (UTC)temp
F
wind
direction
speed
MPH
gust
MPH
rain 1hr
in
rain 24hr
in
rain mn
in
humidity
%
barometer
mb
20190523031514 69 247 0.0 0.0 0.00 0.00 0.00 90 1027.6
20190523031019 69 247 0.0 0.0 0.00 0.00 0.00 90 1027.6
20190523030517 69 247 0.0 0.0 0.00 0.00 0.00 89 1027.6
20190523030017 69 247 0.0 0.0 0.00 0.00 0.00 89 1027.7
20190523025515 69 247 0.0 0.0 0.00 0.00 0.00 88 1027.6
20190523025018 69 247 0.0 0.0 0.00 0.00 0.00 88 1027.7
20190523024514 69 247 0.0 0.0 0.00 0.00 0.00 88 1027.6
20190523024017 69 247 0.0 0.0 0.00 0.00 0.00 88 1027.6
20190523023516 69 247 0.0 0.0 0.00 0.00 0.00 87 1027.4
20190523023018 69 247 0.0 0.0 0.00 0.00 0.00 88 1027.5
20190523022514 69 247 0.0 0.0 0.00 0.00 0.00 88 1027.5
20190523022019 69 247 0.0 0.0 0.00 0.00 0.00 88 1027.5
20190523021514 69 247 0.0 0.0 0.00 0.00 0.00 87 1027.5
20190523021016 69 247 0.0 0.0 0.00 0.00 0.00 88 1027.4
20190523020517 69 247 0.0 0.0 0.00 0.00 0.00 88 1027.4
20190523020017 69 247 0.0 0.0 0.00 0.00 0.00 87 1027.3
20190523015514 69 247 0.0 0.0 0.00 0.00 0.00 87 1027.3
20190523015019 69 247 0.0 0.0 0.00 0.00 0.00 87 1027.2
20190523014515 69 247 0.0 0.0 0.00 0.00 0.00 87 1027.1
20190523014017 69 247 0.0 0.0 0.00 0.00 0.00 87 1027.1
20190523013516 69 247 0.0 0.0 0.00 0.00 0.00 86 1027.0
20190523013017 69 247 0.0 0.0 0.00 0.00 0.00 86 1026.9
20190523012515 69 247 0.0 0.0 0.00 0.00 0.00 86 1026.9
20190523012019 69 247 0.0 0.0 0.00 0.00 0.00 86 1026.8
20190523011514 69 247 0.0 0.0 0.00 0.00 0.00 85 1026.8
20190523011016 69 247 0.0 0.0 0.00 0.00 0.00 84 1026.8
20190523010516 69 247 0.0 0.0 0.00 0.00 0.00 83 1026.7
20190523010016 69 247 0.0 0.0 0.00 0.00 0.00 82 1026.5
20190523005515 70 247 0.0 0.0 0.00 0.00 0.00 83 1026.5
20190523005018 70 247 0.0 0.0 0.00 0.00 0.00 83 1026.6
20190523004515 70 247 0.0 0.0 0.00 0.00 0.00 82 1026.5
20190523004016 70 247 0.0 0.0 0.00 0.00 0.00 81 1026.5
20190523003516 71 247 0.0 0.0 0.00 0.00 0.00 80 1026.3
20190523003016 71 247 0.0 0.0 0.00 0.00 0.00 80 1026.3
20190523002514 71 247 0.0 0.0 0.00 0.00 0.00 80 1026.2
20190523002018 72 247 0.0 0.0 0.00 0.00 0.00 79 1026.2
20190523001515 72 247 0.0 0.0 0.00 0.00 0.00 79 1026.2
20190523001016 73 247 0.0 0.0 0.00 0.00 0.00 79 1026.1
20190523000516 73 247 0.0 0.0 0.00 0.00 0.00 78 1026.0
20190523000018 73 247 0.0 0.0 0.00 0.00 0.00 78 1026.0
20190522235514 73 247 0.0 0.0 0.00 0.00 0.00 78 1025.9
20190522235018 73 247 0.0 0.0 0.00 0.00 0.00 77 1025.8
20190522234514 73 247 0.0 0.0 0.00 0.00 0.00 76 1025.8
20190522234016 74 247 0.0 0.0 0.00 0.00 0.00 76 1025.8
20190522233516 74 247 0.0 1.0 0.00 0.00 0.00 75 1025.7
20190522233018 74 247 0.0 1.0 0.00 0.00 0.00 75 1025.8
20190522232514 74 247 1.0 2.0 0.00 0.00 0.00 75 1025.6
20190522232019 75 202 0.0 0.0 0.00 0.00 0.00 75 1025.7
20190522231514 75 202 0.0 0.0 0.00 0.00 0.00 74 1025.5
20190522230515 75 202 0.0 1.0 0.00 0.00 0.00 73 1025.4
20190522230016 76 157 0.0 2.0 0.00 0.00 0.00 72 1025.5
20190522225514 76 246 1.0 2.0 0.00 0.00 0.00 72 1025.5
20190522225018 76 202 0.0 1.0 0.00 0.00 0.00 71 1025.3
20190522224514 76 173 1.0 2.0 0.00 0.00 0.00 70 1025.2
20190522224016 77 234 2.0 3.0 0.00 0.00 0.00 70 1025.1
20190522223515 77 202 0.0 1.0 0.00 0.00 0.00 70 1025.1
20190522223017 78 247 0.0 1.0 0.00 0.00 0.00 69 1025.2
20190522222514 78 202 0.0 1.0 0.00 0.00 0.00 69 1025.0
20190522222018 78 202 0.0 1.0 0.00 0.00 0.00 68 1025.1
20190522221514 78 158 0.0 0.0 0.00 0.00 0.00 67 1025.1
20190522221016 79 210 1.0 3.0 0.00 0.00 0.00 68 1025.1
20190522220515 79 180 0.0 0.0 0.00 0.00 0.00 68 1025.0
20190522220017 79 157 0.0 0.0 0.00 0.00 0.00 67 1025.0
20190522215514 79 202 0.0 1.0 0.00 0.00 0.00 67 1024.9
20190522215018 79 234 1.0 2.0 0.00 0.00 0.00 67 1024.9
20190522214514 79 225 0.0 1.0 0.00 0.00 0.00 67 1024.7
20190522214016 79 210 0.0 1.0 0.00 0.00 0.00 67 1024.6
20190522213516 79 202 0.0 1.0 0.00 0.00 0.00 67 1024.6
20190522213016 79 202 0.0 1.0 0.00 0.00 0.00 66 1024.6
20190522212514 79 234 1.0 3.0 0.00 0.00 0.00 65 1024.6
20190522212019 80 170 1.0 2.0 0.00 0.00 0.00 64 1024.7
20190522211514 80 177 0.0 2.0 0.00 0.00 0.00 63 1024.8
20190522211016 81 157 0.0 1.0 0.00 0.00 0.00 62 1024.8
20190522210516 82 165 1.0 3.0 0.00 0.00 0.00 61 1024.8
20190522210017 83 148 1.0 2.0 0.00 0.00 0.00 62 1024.8
20190522205514 82 180 0.0 0.0 0.00 0.00 0.00 62 1025.0
20190522205019 82 180 0.0 0.0 0.00 0.00 0.00 62 1024.9
20190522204515 81 185 0.0 2.0 0.00 0.00 0.00 63 1025.0
20190522204016 81 178 0.0 1.0 0.00 0.00 0.00 64 1025.0
20190522203516 81 216 1.0 2.0 0.00 0.00 0.00 64 1025.0
20190522203016 80 247 1.0 2.0 0.00 0.00 0.00 63 1025.0
20190522202514 81 138 1.0 6.0 0.00 0.00 0.00 63 1025.1
20190522202019 82 232 1.0 3.0 0.00 0.00 0.00 61 1025.0
20190522201514 82 202 0.0 1.0 0.00 0.00 0.00 62 1025.0
20190522201017 82 202 1.0 2.0 0.00 0.00 0.00 62 1025.0
20190522200516 82 216 1.0 2.0 0.00 0.00 0.00 62 1025.0
20190522200017 82 202 1.0 3.0 0.00 0.00 0.00 63 1025.0
20190522195514 81 214 0.0 1.0 0.00 0.00 0.00 64 1025.0
20190522195019 81 221 1.0 2.0 0.00 0.00 0.00 63 1024.9
20190522194515 82 166 1.0 3.0 0.00 0.00 0.00 63 1025.0
20190522194017 82 244 1.0 3.0 0.00 0.00 0.00 64 1024.9
20190522193517 82 249 1.0 2.0 0.00 0.00 0.00 65 1025.0
20190522193016 81 228 1.0 2.0 0.00 0.00 0.00 67 1025.0
20190522192514 80 281 0.0 1.0 0.00 0.00 0.00 70 1024.9
20190522192018 79 247 0.0 1.0 0.00 0.00 0.00 72 1024.8
20190522191514 78 202 0.0 0.0 0.00 0.00 0.00 72 1025.0
20190522191016 78 202 1.0 2.0 0.00 0.00 0.00 73 1025.1
20190522190516 77 250 0.0 2.0 0.00 0.00 0.00 75 1025.0
20190522190018 76 22 0.0 1.0 0.00 0.00 0.00 76 1025.1
20190522185515 76 22 0.0 0.0 0.00 0.00 0.00 75 1025.2
20190522185018 76 22 1.0 1.0 0.00 0.00 0.00 75 1025.2
20190522184016 77 22 0.0 0.0 0.00 0.00 0.00 74 1025.2
20190522183517 77 22 0.0 0.0 0.00 0.00 0.00 73 1025.2
20190522183016 77 22 0.0 0.0 0.00 0.00 0.00 73 1025.1
20190522182514 77 22 0.0 0.0 0.00 0.00 0.00 72 1025.1
20190522182019 78 22 0.0 0.0 0.00 0.00 0.00 70 1025.1
20190522181515 79 337 1.0 2.0 0.00 0.00 0.00 70 1025.1
20190522181016 79 341 0.0 0.0 0.00 0.00 0.00 71 1025.0
20190522180517 78 67 0.0 0.0 0.00 0.00 0.00 72 1025.1
20190522180017 78 112 0.0 0.0 0.00 0.00 0.00 71 1025.1
20190522175514 78 112 0.0 0.0 0.00 0.00 0.00 69 1025.2
20190522175018 79 157 0.0 0.0 0.00 0.00 0.00 70 1025.2
20190522174515 78 112 0.0 0.0 0.00 0.00 0.00 71 1025.2
20190522174017 78 112 0.0 0.0 0.00 0.00 0.00 71 1025.2
20190522173516 77 112 0.0 0.0 0.00 0.00 0.00 72 1025.2
20190522173017 77 112 0.0 0.0 0.00 0.00 0.00 73 1025.2
20190522172514 76 157 0.0 0.0 0.00 0.00 0.00 73 1025.2
20190522172018 75 152 0.0 1.0 0.00 0.00 0.00 74 1025.2
20190522171514 75 112 0.0 0.0 0.00 0.00 0.00 75 1025.1
20190522171016 75 112 0.0 0.0 0.00 0.00 0.00 74 1025.2
20190522170516 75 112 0.0 0.0 0.00 0.00 0.00 74 1025.2
20190522170018 75 112 0.0 0.0 0.00 0.00 0.00 73 1025.2
20190522165514 75 112 0.0 0.0 0.00 0.00 0.00 72 1025.2
20190522165019 75 112 0.0 0.0 0.00 0.00 0.00 70 1025.2
20190522164515 75 112 0.0 0.0 0.00 0.00 0.00 68 1025.1
20190522164015 76 112 0.0 1.0 0.00 0.00 0.00 67 1025.2
20190522163515 77 67 0.0 1.0 0.00 0.00 0.00 67 1025.0
20190522163016 77 315 0.0 0.0 0.00 0.00 0.00 66 1025.0
20190522162514 77 296 0.0 1.0 0.00 0.00 0.00 66 1025.0
20190522162018 77 183 0.0 1.0 0.00 0.00 0.00 68 1024.9
20190522161514 77 312 0.0 1.0 0.00 0.00 0.00 69 1024.8
20190522161016 76 202 0.0 0.0 0.00 0.00 0.00 70 1024.8
20190522160516 75 202 0.0 0.0 0.00 0.00 0.00 72 1024.9
20190522160017 75 202 0.0 0.0 0.00 0.00 0.00 73 1024.9
20190522155514 74 202 0.0 0.0 0.00 0.00 0.00 73 1025.0
20190522155018 74 202 0.0 0.0 0.00 0.00 0.00 74 1025.0
20190522154514 73 112 0.0 0.0 0.00 0.00 0.00 76 1025.0
20190522154016 73 112 0.0 0.0 0.00 0.00 0.00 76 1025.1
20190522153515 72 112 0.0 1.0 0.00 0.00 0.00 77 1025.2
20190522153016 71 157 0.0 0.0 0.00 0.00 0.00 79 1025.3
20190522152514 70 143 0.0 1.0 0.00 0.00 0.00 82 1025.2
20190522152019 69 202 0.0 0.0 0.00 0.00 0.00 84 1025.2
20190522151515 69 247 0.0 0.0 0.00 0.00 0.00 85 1025.1
20190522151016 68 247 0.0 0.0 0.00 0.00 0.00 85 1025.1
20190522150516 68 247 0.0 0.0 0.00 0.00 0.00 86 1025.0
20190522150017 67 202 0.0 0.0 0.00 0.00 0.00 87 1025.0
20190522145514 66 135 0.0 0.0 0.00 0.00 0.00 88 1025.0
20190522145018 66 135 0.0 0.0 0.00 0.00 0.00 88 1024.8
20190522144514 65 112 0.0 0.0 0.00 0.00 0.00 89 1024.8
20190522144017 65 112 0.0 0.0 0.00 0.00 0.00 90 1024.7
20190522143516 65 112 0.0 0.0 0.00 0.00 0.00 90 1024.6
20190522143017 65 112 0.0 0.0 0.00 0.00 0.00 90 1024.6
20190522142514 64 112 0.0 0.0 0.00 0.00 0.00 91 1024.5
20190522142018 64 172 0.0 0.0 0.00 0.00 0.00 90 1024.5
20190522141514 64 157 0.0 0.0 0.00 0.00 0.00 92 1024.7
20190522141017 63 180 0.0 0.0 0.00 0.00 0.00 93 1024.7
20190522140516 63 180 0.0 0.0 0.00 0.00 0.00 94 1024.8
20190522140016 63 180 0.0 0.0 0.00 0.00 0.00 94 1024.8
20190522135514 62 292 0.0 0.0 0.00 0.00 0.00 95 1024.7
20190522135019 62 292 0.0 0.0 0.00 0.00 0.00 95 1024.7
20190522134515 62 292 0.0 0.0 0.00 0.00 0.00 95 1024.6
20190522134016 62 292 0.0 0.0 0.00 0.00 0.00 95 1024.7
20190522133516 61 292 0.0 0.0 0.00 0.00 0.00 96 1024.7
20190522133016 61 292 0.0 0.0 0.00 0.00 0.00 97 1024.8
20190522132514 60 292 0.0 0.0 0.00 0.00 0.00 97 1024.8
20190522132018 60 292 0.0 0.0 0.00 0.00 0.00 98 1024.7
20190522131514 60 292 0.0 0.0 0.00 0.00 0.00 98 1024.7
20190522131017 59 202 0.0 0.0 0.00 0.00 0.00 99 1024.8
20190522130515 59 202 0.0 0.0 0.00 0.00 0.00 99 1024.8
20190522130017 59 202 0.0 0.0 0.00 0.00 0.00 99 1024.8
20190522125514 58 202 0.0 0.0 0.00 0.00 0.00 99 1024.9
20190522125018 58 202 0.0 0.0 0.00 0.00 0.00 99 1024.8
20190522124514 58 202 0.0 0.0 0.00 0.00 0.00 99 1024.8
20190522124016 57 202 0.0 0.0 0.00 0.00 0.00 99 1024.9
20190522123516 57 202 0.0 0.0 0.00 0.00 0.00 99 1024.8
20190522123016 57 202 0.0 0.0 0.00 0.00 0.00 99 1024.9
20190522122514 57 202 0.0 0.0 0.00 0.00 0.00 99 1024.7
20190522122017 57 202 0.0 0.0 0.00 0.00 0.00 99 1024.9
20190522121514 57 202 0.0 0.0 0.00 0.00 0.00 98 1024.9
20190522121016 56 202 0.0 0.0 0.00 0.00 0.00 98 1024.7
20190522120515 56 202 0.0 0.0 0.00 0.00 0.00 99 1024.8
20190522120016 56 202 0.0 0.0 0.00 0.00 0.00 99 1024.9
20190522115513 56 202 0.0 0.0 0.00 0.00 0.00 98 1024.7
20190522115017 56 202 0.0 0.0 0.00 0.00 0.00 98 1024.8
20190522114514 56 202 0.0 0.0 0.00 0.00 0.00 98 1024.8
20190522114016 56 202 0.0 0.0 0.00 0.00 0.00 98 1024.7
20190522113515 55 202 0.0 0.0 0.00 0.00 0.00 98 1024.7
20190522113017 55 202 0.0 0.0 0.00 0.00 0.00 98 1024.7
20190522112514 55 202 0.0 0.0 0.00 0.00 0.00 98 1024.6
20190522112018 55 202 0.0 0.0 0.00 0.00 0.00 98 1024.7
20190522111514 55 67 0.0 0.0 0.00 0.00 0.00 98 1024.8
20190522111016 55 67 0.0 0.0 0.00 0.00 0.00 98 1024.7
20190522110515 55 67 0.0 0.0 0.00 0.00 0.00 98 1024.5
20190522110016 55 67 0.0 0.0 0.00 0.00 0.00 98 1024.3
20190522105514 55 67 0.0 0.0 0.00 0.00 0.00 98 1024.3
20190522105018 55 67 0.0 0.0 0.00 0.00 0.00 98 1024.5
20190522104514 55 67 0.0 0.0 0.00 0.00 0.00 98 1024.4
20190522104015 55 67 0.0 0.0 0.00 0.00 0.00 97 1024.4
20190522103516 55 67 0.0 0.0 0.00 0.00 0.00 97 1024.3
20190522103019 55 67 0.0 0.0 0.00 0.00 0.00 97 1024.2
20190522102515 55 360 0.0 0.0 0.00 0.00 0.00 97 1024.3
20190522102017 55 360 0.0 0.0 0.00 0.00 0.00 97 1024.4
20190522101513 55 360 0.0 0.0 0.00 0.00 0.00 97 1024.1
20190522101015 55 360 0.0 0.0 0.00 0.00 0.00 97 1024.0
20190522100515 55 360 0.0 0.0 0.00 0.00 0.00 97 1023.9
20190522100016 55 360 0.0 0.0 0.00 0.00 0.00 97 1023.7
20190522095514 55 360 0.0 0.0 0.00 0.00 0.00 97 1023.7
20190522095017 55 360 0.0 0.0 0.00 0.00 0.00 96 1023.7
20190522094514 56 360 0.0 0.0 0.00 0.00 0.00 97 1023.6
20190522094015 56 360 0.0 0.0 0.00 0.00 0.00 97 1023.7
20190522093515 56 360 0.0 0.0 0.00 0.00 0.00 97 1023.5
20190522093016 56 360 0.0 0.0 0.00 0.00 0.00 96 1023.5
20190522092514 56 360 0.0 0.0 0.00 0.00 0.00 97 1023.6
20190522092017 56 360 0.0 0.0 0.00 0.00 0.00 97 1023.6
20190522091513 56 360 0.0 0.0 0.00 0.00 0.00 96 1023.5
20190522091015 56 360 0.0 0.0 0.00 0.00 0.00 96 1023.3
20190522090516 56 360 0.0 0.0 0.00 0.00 0.00 96 1023.2
20190522090016 56 360 0.0 0.0 0.00 0.00 0.00 96 1023.1
20190522085513 56 360 0.0 0.0 0.00 0.00 0.00 96 1023.2
20190522085017 56 360 0.0 0.0 0.00 0.00 0.00 96 1023.2
20190522084513 56 360 0.0 0.0 0.00 0.00 0.00 96 1023.0
20190522084015 56 360 0.0 0.0 0.00 0.00 0.00 96 1022.8
20190522083516 56 360 0.0 0.0 0.00 0.00 0.00 95 1022.8
20190522083016 56 360 0.0 0.0 0.00 0.00 0.00 95 1022.8
20190522082514 56 360 0.0 0.0 0.00 0.00 0.00 95 1022.6
20190522082017 56 360 0.0 0.0 0.00 0.00 0.00 95 1022.6
20190522081513 56 360 0.0 0.0 0.00 0.00 0.00 95 1022.5
20190522081015 56 360 0.0 0.0 0.00 0.00 0.00 95 1022.5
20190522080516 56 360 0.0 0.0 0.00 0.00 0.00 95 1022.5
20190522080016 56 360 0.0 0.0 0.00 0.00 0.00 94 1022.4
20190522075513 56 360 0.0 0.0 0.00 0.00 0.00 94 1022.4
20190522075018 57 360 0.0 0.0 0.00 0.00 0.00 94 1022.3
20190522074514 57 360 0.0 0.0 0.00 0.00 0.00 94 1022.4
20190522074015 57 360 0.0 0.0 0.00 0.00 0.00 94 1022.3
20190522073516 57 360 0.0 0.0 0.00 0.00 0.00 94 1022.4
20190522073016 57 360 0.0 0.0 0.00 0.00 0.00 93 1022.4
20190522072514 57 360 0.0 0.0 0.00 0.00 0.00 93 1022.3
20190522072017 57 360 0.0 0.0 0.00 0.00 0.00 93 1022.2
20190522071515 57 360 0.0 0.0 0.00 0.00 0.00 92 1022.1
20190522071015 57 360 0.0 0.0 0.00 0.00 0.00 92 1022.1
20190522070515 57 360 0.0 0.0 0.00 0.00 0.00 91 1022.1
20190522070015 57 360 0.0 0.0 0.00 0.00 0.00 91 1022.1
20190522065513 57 360 0.0 0.0 0.00 0.00 0.00 91 1022.2
20190522065017 58 360 0.0 0.0 0.00 0.00 0.00 91 1022.1
20190522064514 58 360 0.0 0.0 0.00 0.00 0.00 91 1022.1
20190522064016 58 360 0.0 0.0 0.00 0.00 0.00 90 1022.1
20190522063515 58 360 0.0 0.0 0.00 0.00 0.00 90 1022.2
20190522063016 58 360 0.0 0.0 0.00 0.00 0.00 90 1022.1
20190522062514 58 360 0.0 0.0 0.00 0.00 0.00 90 1022.2
20190522062017 59 360 0.0 0.0 0.00 0.00 0.00 90 1022.1
20190522061513 59 360 0.0 0.0 0.00 0.00 0.00 90 1022.1
20190522061015 59 360 0.0 0.0 0.00 0.00 0.00 88 1022.2
20190522060515 59 360 0.0 0.0 0.00 0.00 0.00 89 1022.1
20190522060015 59 360 0.0 0.0 0.00 0.00 0.00 88 1022.1
20190522055515 59 360 0.0 0.0 0.00 0.00 0.00 88 1022.2
20190522055017 59 360 0.0 0.0 0.00 0.00 0.00 88 1022.3
20190522054513 59 360 0.0 0.0 0.00 0.00 0.00 87 1022.3
20190522054016 59 360 0.0 0.0 0.00 0.00 0.00 87 1022.3
20190522053515 59 360 0.0 0.0 0.00 0.00 0.00 87 1022.2
20190522053017 59 360 0.0 0.0 0.00 0.00 0.00 87 1022.0
20190522052515 59 360 0.0 0.0 0.00 0.00 0.00 86 1021.9
20190522052018 59 360 0.0 0.0 0.00 0.00 0.00 86 1021.8
20190522051513 60 360 0.0 0.0 0.00 0.00 0.00 86 1021.5
20190522051016 60 360 0.0 0.0 0.00 0.00 0.00 85 1021.6
20190522050516 60 360 0.0 0.0 0.00 0.00 0.00 84 1021.7
20190522050017 60 360 0.0 0.0 0.00 0.00 0.00 85 1021.7
20190522045513 61 360 0.0 0.0 0.00 0.00 0.00 85 1021.6
20190522045017 61 360 0.0 0.0 0.00 0.00 0.00 84 1021.6
20190522044515 61 360 0.0 0.0 0.00 0.00 0.00 84 1021.5
20190522044015 61 360 0.0 0.0 0.00 0.00 0.00 82 1021.5
20190522043515 61 360 0.0 0.0 0.00 0.00 0.00 82 1021.5
20190522043016 61 360 0.0 0.0 0.00 0.00 0.00 80 1021.6
20190522042514 62 360 0.0 0.0 0.00 0.00 0.00 80 1021.6
20190522042017 62 360 0.0 0.0 0.00 0.00 0.00 80 1021.7
20190522041514 62 360 0.0 0.0 0.00 0.00 0.00 80 1021.7
20190522041015 63 360 0.0 0.0 0.00 0.00 0.00 79 1021.7
20190522040526 63 360 0.0 0.0 0.00 0.00 0.00 79 1021.6
20190522035515 64 360 0.0 0.0 0.00 0.00 0.00 77 1021.6
20190522035020 64 360 0.0 0.0 0.00 0.00 0.00 77 1021.6
20190522034515 64 360 0.0 0.0 0.00 0.00 0.00 77 1021.5
20190522034016 64 360 0.0 0.0 0.00 0.00 0.00 76 1021.5
20190522033516 64 360 0.0 0.0 0.00 0.00 0.00 77 1021.5
20190522033017 64 360 0.0 0.0 0.00 0.00 0.00 77 1021.5
20190522032514 64 360 0.0 0.0 0.00 0.00 0.00 77 1021.4
20190522032017 65 360 0.0 0.0 0.00 0.00 0.00 77 1021.4